Wind_Speed
32 33 34 35 35 36 36 36 37 37 37 37 39 40 41 41 41 41 41 42 42 42 42 42 43 44 44 46 46 47 47 47 47 46 47 46 46 46 45 44 44 42 41
35 36 37 38 39 39 39 39 39 40 40 40 41 41 42 43 43 43 43 43 43 43 43 44 45 45 46 46 46 46 45 45 45 44 44 45 45 44 44 43 41 40 39
37 38 39 40 40 41 41 41 42 42 43 44 44 44 45 45 45 45 45 45 45 45 45 45 45 45 45 45 44 44 43 43 43 43 43 43 43 42 42 41 40 38 37
40 41 43 43 44 44 44 44 45 45 46 47 46 47 47 47 47 47 47 47 46 46 45 45 44 43 43 43 43 42 42 42 42 42 42 42 41 41 40 39 38 36 35
43 44 45 46 46 47 47 47 48 48 48 49 48 48 48 48 48 48 47 47 46 45 45 44 44 43 43 43 42 41 41 42 41 41 40 40 39 38 38 37 35 34 33
47 48 49 49 50 50 51 51 51 51 50 50 50 50 50 50 50 49 48 48 47 46 45 44 44 43 43 42 42 41 41 41 40 40 39 38 37 37 35 34 33 32 31
50 51 52 52 53 53 53 53 53 53 53 52 52 51 51 51 50 50 49 48 47 46 45 44 43 42 42 41 41 41 40 39 39 38 37 36 35 34 33 32 30 29 29
52 53 54 55 55 55 55 54 54 54 54 53 53 52 51 50 49 49 48 47 46 45 44 44 43 42 41 41 40 39 39 38 37 36 35 34 33 32 31 30 29 29 28
53 54 55 55 56 56 56 55 55 54 53 53 52 51 51 50 49 48 48 47 45 44 44 43 42 41 41 40 39 38 38 36 35 34 34 33 31 30 29 28 28 27 27
53 54 54 54 54 55 55 55 55 54 52 52 51 50 50 49 49 48 47 46 45 44 43 42 41 41 40 39 38 37 36 35 34 33 32 31 30 29 28 27 27 26 25
55 55 55 55 55 55 54 54 54 53 52 51 50 50 49 48 48 47 47 46 44 43 42 42 41 40 39 38 37 36 35 34 33 32 30 29 28 28 27 27 26 25 25
57 57 57 57 56 56 55 54 53 52 51 50 50 49 48 47 46 46 46 45 44 43 42 41 40 39 38 37 36 34 33 32 31 30 29 28 28 27 26 26 25 25 24
58 59 59 58 58 57 56 55 54 53 52 50 49 49 49 48 47 46 45 45 45 43 42 41 40 38 37 36 35 34 32 31 30 29 28 28 27 27 26 26 26 25 24
61 61 60 60 59 58 57 56 55 54 54 53 50 49 48 48 47 46 46 45 44 43 42 41 40 38 37 36 35 33 32 31 30 29 28 27 27 26 26 25 25 25 25
62 61 60 59 59 57 57 56 55 54 53 52 51 51 50 48 47 46 46 45 44 43 42 41 39 38 37 35 34 33 32 31 30 29 28 27 27 26 26 25 25 25 25
61 60 59 58 57 55 54 53 52 51 51 51 50 50 49 48 47 46 46 45 44 42 41 40 39 38 37 36 34 33 32 31 30 29 28 27 27 26 25 25 25 25 26
59 58 57 56 54 53 51 50 50 50 50 49 49 49 48 47 47 46 46 46 45 44 42 40 39 38 37 36 35 33 32 31 30 29 28 28 27 26 26 26 26 26 26
56 55 53 52 51 50 49 48 48 48 47 48 48 47 47 46 46 45 45 45 44 43 41 40 39 38 37 36 35 33 32 31 30 30 29 28 28 27 27 27 27 27 27
51 50 49 48 47 46 46 46 45 46 46 46 47 47 46 46 45 45 45 44 43 42 41 40 38 37 36 35 34 33 32 31 31 31 30 29 29 29 28 28 28 28 28
47 46 44 43 41 41 41 41 42 43 43 44 45 45 45 45 45 44 44 44 43 42 41 39 38 37 36 35 34 33 33 32 32 31 30 30 29 29 29 29 29 29 29
43 41 40 38 36 35 35 36 38 40 42 43 44 44 45 45 44 43 42 42 42 41 40 39 39 38 37 36 35 33 32 32 32 31 30 30 30 29 29 29 29 29 30
40 37 35 33 32 32 31 33 34 37 39 41 43 43 43 43 42 41 41 40 40 40 39 39 38 38 37 35 34 33 32 31 31 31 30 30 30 30 30 30 30 30 30
36 33 32 31 30 29 29 30 32 34 36 38 40 42 42 41 41 41 40 40 39 39 38 38 38 37 36 35 34 33 32 31 31 31 31 30 30 30 30 30 30 30 31
33 32 30 29 28 28 28 29 30 32 34 36 38 40 41 41 40 40 40 39 39 38 37 36 36 36 36 35 34 33 33 32 32 32 31 31 31 30 30 30 30 30 31
31 30 28 27 27 26 27 27 29 30 32 34 36 37 39 40 39 39 39 38 38 37 37 36 36 36 36 35 34 34 33 33 32 32 32 31 31 30 30 30 30 31 32
28 26 25 24 23 24 24 25 26 28 30 32 34 35 37 38 38 38 38 38 37 36 36 36 35 35 35 35 34 33 32 32 32 32 31 31 31 30 30 31 31 32 33
Wind_Direction
261 261 261 261 261 261 261 260 260 259 259 259 259 260 262 264 266 267 267 269 271 273 275 277 278 280 282 282 283 284 284 284 285 285 286 286 286 286 286 286 286 286 285
263 263 263 263 263 264 263 263 262 261 261 262 262 263 263 265 267 268 270 271 273 274 276 277 279 280 281 282 282 283 283 284 285 285 285 285 285 285 285 285 285 284 284
264 265 265 265 265 265 265 265 265 265 265 265 265 265 266 267 269 270 271 271 273 274 276 277 278 279 280 280 281 282 283 284 284 284 285 285 286 286 285 285 284 283 282
266 266 266 266 267 266 266 266 266 266 266 266 266 266 267 267 268 269 270 270 271 272 274 276 276 277 278 280 281 282 283 283 284 284 285 286 286 286 285 284 282 280 279
267 267 267 267 267 267 267 267 267 267 267 266 266 265 266 266 267 267 268 269 270 270 272 273 274 275 277 279 280 281 282 282 283 284 285 285 285 285 285 284 281 279 277
267 268 268 268 268 268 268 267 267 267 267 266 266 265 265 265 266 266 267 268 268 269 270 271 273 274 276 277 278 279 280 281 281 282 283 284 284 284 283 282 280 278 275
270 270 270 270 269 269 269 268 268 267 267 266 266 266 266 266 266 266 266 266 267 268 268 269 271 272 274 275 276 277 278 279 280 282 282 282 282 282 281 279 277 276 273
271 271 271 271 270 270 269 269 268 268 267 267 266 266 266 265 265 265 265 265 265 265 266 267 268 270 271 273 274 275 277 279 280 280 280 281 280 279 278 276 275 274 272
273 273 272 272 271 270 270 269 268 267 267 266 265 265 264 264 263 263 263 263 263 263 264 265 266 268 269 271 272 274 275 277 277 278 278 278 277 276 275 274 273 273 272
275 274 273 273 272 271 270 269 268 267 266 265 264 263 262 262 262 261 261 261 260 261 262 263 264 265 267 269 271 272 273 274 274 275 275 275 274 273 273 273 272 272 271
276 275 274 274 273 272 270 269 268 267 265 263 262 261 260 260 259 259 259 259 259 259 260 261 262 264 266 267 269 270 270 271 271 271 272 273 273 272 272 272 271 270 268
277 276 275 274 273 272 270 269 267 265 264 262 260 259 258 257 256 256 257 257 257 257 259 260 261 262 263 265 266 267 268 268 268 268 269 270 270 270 270 270 269 267 265
279 278 277 275 273 271 270 268 266 264 262 260 258 256 256 255 254 254 255 255 254 255 257 258 259 260 261 262 264 264 265 265 265 265 266 267 267 267 268 267 266 265 264
280 278 276 275 273 271 269 267 265 263 260 258 256 254 254 253 253 253 253 254 254 253 255 256 257 258 259 260 261 261 262 262 262 262 263 264 264 265 265 265 265 265 265
281 280 278 276 274 271 269 267 264 261 258 256 254 252 251 251 250 250 251 251 251 251 252 253 255 256 257 257 258 259 259 259 259 259 260 261 262 263 264 263 264 266 267
282 280 279 277 274 271 268 265 261 257 254 253 251 249 248 247 247 248 248 248 248 249 249 250 252 253 254 254 255 256 256 256 256 257 257 258 260 261 262 262 264 266 268
284 282 280 277 274 270 267 263 258 254 252 249 247 245 244 244 244 245 246 246 246 246 247 248 250 251 252 252 253 253 253 254 254 254 254 256 258 259 260 262 264 266 268
287 285 282 277 272 269 265 262 257 252 249 246 244 242 241 241 241 242 243 243 244 244 245 247 248 250 250 250 250 250 251 251 252 252 252 255 257 259 261 262 264 266 268
290 287 282 278 273 267 263 259 255 250 246 244 241 240 239 239 239 240 240 241 242 243 243 244 246 247 247 247 247 247 248 249 250 251 252 254 256 258 260 262 264 267 269
292 288 284 279 273 266 261 255 251 247 243 240 238 237 237 238 238 238 239 239 241 241 241 242 243 244 245 245 244 245 247 249 250 250 250 252 255 258 260 262 264 267 268
292 289 286 279 271 266 260 254 248 244 240 237 235 234 235 235 235 236 236 237 238 239 239 240 241 242 243 243 243 244 246 247 247 247 249 252 255 258 260 262 264 266 268
292 288 285 280 272 264 259 253 247 242 237 234 232 232 232 232 233 233 234 234 235 236 236 237 238 239 240 240 241 242 244 245 245 247 249 252 255 258 260 262 264 266 268
292 287 283 279 272 264 257 252 246 242 237 234 232 230 229 229 230 230 231 232 233 233 234 235 235 236 237 238 239 240 242 244 246 248 250 253 256 258 261 263 265 267 269
293 288 282 277 270 263 258 252 246 241 237 234 231 229 227 227 227 228 229 230 230 231 232 232 232 233 235 237 238 239 241 244 247 249 251 254 256 259 262 264 265 267 271
293 289 283 276 268 261 257 251 246 242 237 232 230 228 226 226 225 226 227 228 229 230 230 231 232 232 234 236 238 240 242 245 248 250 251 254 256 258 261 263 266 269 272
293 289 282 274 266 260 255 250 245 241 236 232 229 226 224 223 223 224 226 227 228 229 229 231 232 232 233 235 237 240 242 245 248 249 251 253 255 258 261 264 267 271 274
Height
5696 5697 5698 5700 5702 5703 5704 5706 5707 5708 5709 5710 5711 5713 5713 5714 5714 5715 5715 5716 5716 5716 5716 5716 5715 5715 5714 5712 5711 5709 5707 5705 5703 5701 5698 5695 5693 5690 5687 5684 5682 5680 5678
5688 5689 5690 5691 5692 5693 5694 5696 5697 5698 5698 5699 5700 5701 5702 5703 5703 5704 5704 5704 5704 5705 5705 5704 5704 5703 5702 5700 5699 5697 5695 5693 5691 5689 5687 5684 5681 5678 5676 5674 5671 5669 5667
5679 5680 5681 5681 5682 5683 5684 5684 5685 5686 5687 5688 5689 5690 5690 5691 5692 5692 5692 5692 5692 5693 5693 5692 5692 5691 5690 5688 5687 5685 5683 5681 5679 5677 5675 5673 5670 5667 5665 5663 5660 5658 5657
5670 5670 5670 5671 5671 5672 5672 5673 5673 5674 5675 5676 5676 5677 5678 5678 5679 5679 5680 5680 5680 5680 5680 5680 5679 5679 5678 5677 5675 5674 5672 5670 5668 5666 5664 5661 5659 5656 5654 5652 5650 5648 5647
5659 5659 5659 5658 5659 5659 5659 5660 5661 5661 5662 5662 5663 5664 5665 5665 5666 5666 5667 5667 5667 5667 5667 5667 5667 5667 5666 5665 5664 5662 5660 5659 5657 5655 5653 5650 5648 5646 5644 5642 5640 5638 5637
5648 5647 5646 5646 5646 5646 5646 5646 5647 5647 5647 5648 5649 5650 5651 5651 5652 5652 5653 5654 5654 5655 5655 5655 5655 5654 5654 5653 5652 5650 5649 5647 5646 5644 5642 5640 5638 5636 5634 5632 5630 5629 5628
5634 5633 5632 5632 5631 5631 5631 5631 5631 5632 5633 5633 5634 5635 5636 5637 5637 5638 5639 5640 5641 5641 5641 5642 5642 5641 5641 5641 5640 5638 5637 5636 5635 5633 5631 5629 5628 5626 5624 5623 5621 5621 5620
5619 5618 5617 5616 5616 5615 5615 5615 5615 5616 5617 5617 5618 5619 5621 5622 5622 5624 5625 5626 5627 5627 5628 5628 5629 5629 5629 5628 5628 5627 5626 5625 5623 5622 5621 5619 5618 5616 5615 5614 5613 5612 5611
5604 5602 5601 5600 5599 5598 5598 5598 5599 5599 5600 5601 5602 5603 5605 5606 5608 5609 5610 5612 5613 5614 5615 5615 5616 5616 5616 5616 5616 5615 5615 5614 5613 5611 5610 5609 5608 5607 5606 5605 5604 5604 5603
5588 5586 5584 5583 5582 5581 5581 5581 5581 5582 5583 5584 5586 5588 5589 5591 5592 5594 5596 5597 5599 5600 5601 5602 5603 5604 5604 5604 5604 5604 5603 5603 5602 5601 5600 5600 5599 5598 5597 5596 5596 5595 5595
5571 5569 5567 5566 5565 5564 5563 5563 5564 5565 5566 5568 5570 5572 5573 5575 5577 5579 5581 5583 5585 5587 5588 5589 5590 5591 5592 5592 5592 5592 5592 5592 5592 5591 5591 5590 5590 5589 5588 5588 5587 5587 5587
5553 5551 5549 5547 5546 5545 5545 5545 5546 5547 5549 5550 5553 5555 5558 5560 5562 5564 5567 5569 5571 5573 5575 5576 5578 5579 5579 5580 5581 5581 5581 5581 5581 5581 5581 5581 5581 5580 5580 5579 5579 5579 5579
5534 5531 5529 5528 5527 5526 5526 5527 5528 5529 5531 5533 5536 5539 5541 5544 5547 5550 5552 5555 5557 5559 5561 5563 5565 5566 5567 5569 5569 5570 5571 5571 5571 5572 5572 5572 5572 5572 5571 5571 5571 5571 5572
5514 5511 5509 5507 5506 5506 5506 5507 5508 5510 5512 5515 5518 5522 5525 5528 5531 5534 5537 5540 5543 5545 5548 5550 5552 5554 5556 5557 5558 5559 5560 5561 5562 5562 5563 5563 5563 5563 5563 5563 5564 5564 5564
5493 5490 5488 5486 5485 5485 5485 5486 5487 5490 5492 5496 5500 5504 5508 5513 5516 5519 5522 5526 5529 5532 5535 5537 5540 5542 5544 5546 5547 5548 5550 5551 5552 5553 5553 5554 5554 5555 5555 5555 5556 5556 5556
5471 5468 5466 5465 5464 5464 5464 5466 5467 5470 5473 5477 5481 5486 5491 5496 5500 5504 5507 5511 5514 5518 5521 5525 5528 5530 5532 5534 5536 5538 5539 5541 5542 5543 5544 5545 5546 5546 5547 5547 5548 5548 5548
5450 5447 5444 5443 5442 5442 5443 5445 5448 5451 5454 5458 5463 5469 5474 5479 5484 5488 5492 5496 5500 5504 5509 5512 5516 5518 5520 5523 5525 5527 5529 5531 5532 5534 5535 5536 5537 5538 5538 5539 5539 5540 5540
5429 5426 5423 5422 5421 5422 5423 5426 5429 5432 5437 5441 5447 5452 5458 5463 5469 5473 5478 5482 5487 5492 5496 5500 5503 5506 5509 5511 5514 5516 5519 5521 5522 5524 5526 5527 5528 5529 5530 5530 5531 5531 5531
5410 5406 5403 5402 5401 5402 5404 5406 5410 5414 5419 5425 5430 5436 5442 5447 5453 5458 5463 5468 5474 5479 5484 5487 5491 5494 5497 5500 5503 5506 5508 5511 5513 5514 5516 5518 5519 5520 5521 5522 5522 5522 5522
5393 5389 5385 5383 5383 5383 5385 5389 5393 5397 5403 5409 5415 5421 5427 5432 5438 5444 5450 5456 5461 5466 5471 5475 5479 5482 5486 5489 5492 5495 5498 5500 5503 5505 5506 5508 5509 5511 5512 5512 5513 5513 5513
5378 5374 5371 5368 5368 5368 5370 5373 5377 5381 5387 5393 5400 5406 5412 5418 5425 5431 5437 5442 5448 5453 5458 5463 5467 5471 5475 5479 5482 5485 5488 5490 5492 5495 5497 5499 5500 5501 5502 5503 5503 5503 5504
5364 5361 5358 5356 5355 5356 5358 5360 5363 5368 5373 5379 5385 5391 5398 5404 5411 5418 5424 5430 5435 5441 5446 5450 5455 5460 5464 5468 5471 5475 5478 5480 5483 5485 5487 5489 5490 5492 5492 5493 5494 5494 5494
5351 5348 5346 5345 5344 5345 5347 5349 5352 5356 5361 5366 5372 5378 5385 5392 5399 5405 5412 5418 5423 5429 5434 5439 5444 5449 5453 5457 5461 5465 5468 5471 5473 5475 5477 5479 5481 5482 5483 5483 5484 5484 5484
5340 5337 5336 5334 5334 5335 5336 5339 5342 5346 5350 5355 5361 5366 5373 5380 5387 5394 5400 5406 5412 5417 5422 5428 5433 5438 5443 5447 5451 5455 5458 5461 5463 5466 5468 5469 5471 5472 5473 5473 5474 5474 5473
5329 5326 5325 5324 5324 5325 5327 5329 5332 5336 5340 5344 5350 5356 5362 5369 5376 5382 5389 5395 5401 5406 5412 5417 5422 5427 5432 5437 5441 5444 5448 5451 5453 5456 5458 5460 5461 5462 5463 5463 5464 5463 5463
5319 5317 5315 5315 5315 5316 5318 5320 5323 5326 5330 5335 5340 5346 5352 5359 5365 5372 5379 5385 5391 5396 5402 5407 5413 5417 5422 5427 5431 5434 5438 5441 5443 5446 5448 5450 5451 5452 5453 5453 5453 5453 5452